Year,Month,Day,Hour,Minute,Value (Times are PST for temperature in C)
2015,08,04,10,12,19.40
2015,08,04,10,13,19.40
2015,08,04,10,14,19.40
2015,08,04,10,15,19.40
2015,08,04,10,16,19.30
2015,08,04,10,17,19.20
2015,08,04,10,18,19.10
2015,08,04,10,19,19.10
2015,08,04,10,20,19.10
2015,08,04,10,21,19.10
2015,08,04,10,22,19.10
2015,08,04,10,23,19.10
2015,08,04,10,24,19.10
2015,08,04,10,25,19.10
2015,08,04,10,26,19.10
2015,08,04,10,27,19.20
2015,08,04,10,28,19.30
2015,08,04,10,29,19.40
2015,08,04,10,30,19.50
2015,08,04,10,31,19.60
2015,08,04,10,32,19.60
2015,08,04,10,33,19.60
2015,08,04,10,34,19.60
2015,08,04,10,35,19.70
2015,08,04,10,36,19.70
2015,08,04,10,37,19.70
2015,08,04,10,38,19.60
2015,08,04,10,39,19.50
2015,08,04,10,40,19.40
2015,08,04,10,41,19.20
2015,08,04,10,42,19.10
2015,08,04,10,43,19.10
2015,08,04,10,44,19.10
2015,08,04,10,45,19.10
2015,08,04,10,46,19.30
2015,08,04,10,47,19.40
2015,08,04,10,48,19.50
2015,08,04,10,49,19.60
2015,08,04,10,50,19.60
2015,08,04,10,51,19.60
2015,08,04,10,52,19.70
2015,08,04,10,53,19.70
2015,08,04,10,54,19.80
2015,08,04,10,55,19.90
2015,08,04,10,56,19.90
2015,08,04,10,57,19.90
2015,08,04,10,58,19.90
2015,08,04,10,59,19.90
2015,08,04,11,00,19.90
2015,08,04,11,01,19.90
2015,08,04,11,02,20.00
2015,08,04,11,03,20.10
2015,08,04,11,04,20.10
2015,08,04,11,05,20.10
2015,08,04,11,06,20.00
2015,08,04,11,07,20.00
2015,08,04,11,08,20.00
2015,08,04,11,09,20.00
2015,08,04,11,10,20.10
2015,08,04,11,11,20.10
2015,08,04,11,12,20.10
2015,08,04,11,13,20.20
2015,08,04,11,14,20.20
2015,08,04,11,15,20.30
2015,08,04,11,16,20.30
2015,08,04,11,17,20.40
2015,08,04,11,18,20.50
2015,08,04,11,19,20.50
2015,08,04,11,20,20.60
2015,08,04,11,21,20.60
2015,08,04,11,22,20.60
2015,08,04,11,23,20.50
2015,08,04,11,24,20.50
2015,08,04,11,25,20.50
2015,08,04,11,26,20.60
2015,08,04,11,27,20.60
2015,08,04,11,28,20.60
2015,08,04,11,29,20.70
2015,08,04,11,30,20.70
2015,08,04,11,31,20.60
2015,08,04,11,32,20.60
2015,08,04,11,33,20.50
2015,08,04,11,34,20.40
2015,08,04,11,35,20.40
2015,08,04,11,36,20.40
2015,08,04,11,37,20.40
2015,08,04,11,38,20.50
2015,08,04,11,39,20.60
2015,08,04,11,40,20.70
2015,08,04,11,41,20.70
2015,08,04,11,42,20.80
2015,08,04,11,43,20.70
2015,08,04,11,44,20.60
2015,08,04,11,45,20.70
2015,08,04,11,46,20.70
2015,08,04,11,47,20.80
2015,08,04,11,48,21.00
2015,08,04,11,49,21.20
2015,08,04,11,50,21.30
2015,08,04,11,51,21.40
2015,08,04,11,52,21.40
2015,08,04,11,53,21.20
2015,08,04,11,54,21.00
2015,08,04,11,55,20.90
2015,08,04,11,56,20.80
2015,08,04,11,57,20.80
2015,08,04,11,58,20.90
2015,08,04,11,59,20.90
2015,08,04,12,00,21.00
2015,08,04,12,01,21.10
2015,08,04,12,02,21.10
2015,08,04,12,03,21.10
2015,08,04,12,04,21.10
2015,08,04,12,05,21.20
2015,08,04,12,06,21.20
2015,08,04,12,07,21.30
2015,08,04,12,08,21.40
2015,08,04,12,09,21.50
2015,08,04,12,10,21.50
2015,08,04,12,11,21.60
2015,08,04,12,12,21.70
2015,08,04,12,13,21.80
2015,08,04,12,14,21.80
2015,08,04,12,15,22.00
2015,08,04,12,16,22.10
2015,08,04,12,17,22.10
2015,08,04,12,18,22.10
2015,08,04,12,19,22.00
2015,08,04,12,20,21.90
2015,08,04,12,21,21.90
2015,08,04,12,22,21.90
2015,08,04,12,23,22.00
2015,08,04,12,24,22.00
2015,08,04,12,25,22.10
2015,08,04,12,26,22.00
2015,08,04,12,27,22.00
2015,08,04,12,28,22.00
2015,08,04,12,29,22.10
2015,08,04,12,30,22.10
2015,08,04,12,31,22.10
2015,08,04,12,32,22.10
2015,08,04,12,33,22.10
2015,08,04,12,34,22.10
2015,08,04,12,35,22.20
2015,08,04,12,36,22.30
2015,08,04,12,37,22.30
2015,08,04,12,38,22.20
2015,08,04,12,39,22.20
2015,08,04,12,40,22.10
2015,08,04,12,41,22.10
2015,08,04,12,42,22.10
2015,08,04,12,43,22.00
2015,08,04,12,44,22.00
2015,08,04,12,45,22.00
2015,08,04,12,46,22.00
2015,08,04,12,47,22.10
2015,08,04,12,48,22.10
2015,08,04,12,49,22.10
2015,08,04,12,50,22.20
2015,08,04,12,51,22.20
2015,08,04,12,52,22.20
2015,08,04,12,53,22.30
2015,08,04,12,54,22.30
2015,08,04,12,55,22.30
2015,08,04,12,56,22.30
2015,08,04,12,57,22.30
2015,08,04,12,58,22.20
2015,08,04,12,59,22.20
2015,08,04,13,00,22.20
2015,08,04,13,01,22.20
2015,08,04,13,02,22.30
2015,08,04,13,03,22.30
2015,08,04,13,04,22.40
2015,08,04,13,05,22.50
2015,08,04,13,06,22.60
2015,08,04,13,07,22.70
2015,08,04,13,08,22.80
2015,08,04,13,09,22.80
2015,08,04,13,10,22.70
2015,08,04,13,11,22.70
2015,08,04,13,12,22.70
2015,08,04,13,13,22.70
2015,08,04,13,14,22.70
2015,08,04,13,15,22.50
2015,08,04,13,16,22.40
2015,08,04,13,17,22.40
2015,08,04,13,18,22.40
2015,08,04,13,19,22.40
2015,08,04,13,20,22.40
2015,08,04,13,21,22.50
2015,08,04,13,22,22.50
2015,08,04,13,23,22.50
2015,08,04,13,24,22.40
2015,08,04,13,25,22.30
2015,08,04,13,26,22.20
2015,08,04,13,27,22.10
2015,08,04,13,28,22.00
2015,08,04,13,29,21.90
2015,08,04,13,30,21.80
2015,08,04,13,31,21.80
2015,08,04,13,32,21.80
2015,08,04,13,33,21.90
2015,08,04,13,34,21.90
2015,08,04,13,35,21.90
2015,08,04,13,36,22.00
2015,08,04,13,37,22.20
2015,08,04,13,38,22.30
2015,08,04,13,39,22.40
2015,08,04,13,40,22.40
2015,08,04,13,41,22.40
2015,08,04,13,42,22.40
2015,08,04,13,43,22.40
2015,08,04,13,44,22.40
2015,08,04,13,45,22.40
2015,08,04,13,46,22.30
2015,08,04,13,47,22.30
2015,08,04,13,48,22.30
2015,08,04,13,49,22.30
2015,08,04,13,50,22.30
2015,08,04,13,51,22.30
2015,08,04,13,52,22.30
2015,08,04,13,53,22.30
2015,08,04,13,54,22.20
2015,08,04,13,55,22.10
2015,08,04,13,56,22.10
2015,08,04,13,57,22.10
2015,08,04,13,58,22.20
2015,08,04,13,59,22.30
2015,08,04,14,00,22.40
2015,08,04,14,01,22.50
2015,08,04,14,02,22.60
2015,08,04,14,03,22.60
2015,08,04,14,04,22.60
2015,08,04,14,05,22.60
2015,08,04,14,06,22.70
2015,08,04,14,07,22.70
2015,08,04,14,08,22.60
2015,08,04,14,09,22.50
2015,08,04,14,10,22.50
2015,08,04,14,11,22.50
2015,08,04,14,12,22.60
2015,08,04,14,13,22.80
2015,08,04,14,14,22.90
2015,08,04,14,15,22.90
2015,08,04,14,16,23.00
2015,08,04,14,17,23.00
2015,08,04,14,18,23.00
2015,08,04,14,19,23.00
2015,08,04,14,20,22.90
2015,08,04,14,21,22.90
2015,08,04,14,22,22.90
2015,08,04,14,23,22.90
2015,08,04,14,24,23.00
2015,08,04,14,25,23.10
2015,08,04,14,26,23.10
2015,08,04,14,27,23.10
2015,08,04,14,28,23.10
2015,08,04,14,29,23.10
2015,08,04,14,30,23.10
2015,08,04,14,31,23.10
2015,08,04,14,32,23.10
2015,08,04,14,33,23.00
2015,08,04,14,34,22.90
2015,08,04,14,35,22.80
2015,08,04,14,36,22.70
2015,08,04,14,37,22.60
2015,08,04,14,38,22.60
2015,08,04,14,39,22.70
2015,08,04,14,40,22.80
2015,08,04,14,41,22.90
2015,08,04,14,42,23.00
2015,08,04,14,43,23.10
2015,08,04,14,44,23.10
2015,08,04,14,45,23.20
2015,08,04,14,46,23.10
2015,08,04,14,47,23.10
2015,08,04,14,48,23.20
2015,08,04,14,49,23.20
2015,08,04,14,50,23.30
2015,08,04,14,51,23.30
2015,08,04,14,52,23.40
2015,08,04,14,53,23.30
2015,08,04,14,54,23.30
2015,08,04,14,55,23.30
2015,08,04,14,56,23.30
2015,08,04,14,57,23.20
2015,08,04,14,58,23.20
2015,08,04,14,59,23.20
2015,08,04,15,00,23.20
2015,08,04,15,01,23.20
2015,08,04,15,02,23.20
2015,08,04,15,03,23.20
2015,08,04,15,04,23.30
2015,08,04,15,05,23.40
2015,08,04,15,06,23.40
2015,08,04,15,07,23.50
2015,08,04,15,08,23.60
2015,08,04,15,09,23.60
2015,08,04,15,10,23.60
2015,08,04,15,11,23.60
2015,08,04,15,12,23.60
2015,08,04,15,13,23.60
2015,08,04,15,14,23.70
2015,08,04,15,15,23.80
2015,08,04,15,16,23.90
2015,08,04,15,17,23.90
2015,08,04,15,18,23.90
2015,08,04,15,19,23.90
2015,08,04,15,20,23.80
2015,08,04,15,21,23.70
2015,08,04,15,22,23.60
2015,08,04,15,23,23.60
2015,08,04,15,24,23.60
2015,08,04,15,25,23.70
2015,08,04,15,26,23.70
2015,08,04,15,27,23.70
2015,08,04,15,28,23.60
2015,08,04,15,29,23.60
2015,08,04,15,30,23.60
2015,08,04,15,31,23.60
2015,08,04,15,32,23.70
2015,08,04,15,33,23.70
2015,08,04,15,34,23.80
2015,08,04,15,35,23.80
2015,08,04,15,36,23.80
2015,08,04,15,37,23.70
2015,08,04,15,38,23.60
2015,08,04,15,39,23.50
2015,08,04,15,40,23.40
2015,08,04,15,41,23.40
2015,08,04,15,42,23.40
2015,08,04,15,43,23.40
2015,08,04,15,44,23.40
2015,08,04,15,45,23.40
2015,08,04,15,46,23.40
2015,08,04,15,47,23.40
2015,08,04,15,48,23.40
2015,08,04,15,49,23.40
2015,08,04,15,50,23.30
2015,08,04,15,51,23.30
2015,08,04,15,52,23.30
2015,08,04,15,53,23.30
2015,08,04,15,54,23.30
2015,08,04,15,55,23.40
2015,08,04,15,56,23.40
2015,08,04,15,57,23.30
2015,08,04,15,58,23.30
2015,08,04,15,59,23.30
2015,08,04,16,00,23.30
2015,08,04,16,01,23.30
2015,08,04,16,02,23.40
2015,08,04,16,03,23.50
2015,08,04,16,04,23.50
2015,08,04,16,05,23.60
2015,08,04,16,06,23.60
2015,08,04,16,07,23.60
2015,08,04,16,08,23.50
2015,08,04,16,09,23.50
2015,08,04,16,10,23.40
2015,08,04,16,11,23.30
2015,08,04,16,12,23.30
2015,08,04,16,13,23.30
2015,08,04,16,14,23.40
2015,08,04,16,15,23.40
2015,08,04,16,16,23.50
2015,08,04,16,17,23.60
2015,08,04,16,18,23.60
2015,08,04,16,19,23.60
2015,08,04,16,20,23.70
2015,08,04,16,21,23.70
2015,08,04,16,22,23.70
2015,08,04,16,23,23.50
2015,08,04,16,24,23.40
2015,08,04,16,25,23.30
2015,08,04,16,26,23.20
2015,08,04,16,27,23.20
2015,08,04,16,28,23.10
2015,08,04,16,29,23.10
2015,08,04,16,30,23.00
2015,08,04,16,31,23.00
2015,08,04,16,32,22.90
2015,08,04,16,33,23.00
2015,08,04,16,34,23.00
2015,08,04,16,35,23.10
2015,08,04,16,36,23.10
2015,08,04,16,37,23.10
2015,08,04,16,38,23.10
2015,08,04,16,39,23.10
2015,08,04,16,40,23.10
2015,08,04,16,41,23.10
2015,08,04,16,42,23.10
2015,08,04,16,43,23.10
2015,08,04,16,44,23.00
2015,08,04,16,45,22.90
2015,08,04,16,46,22.90
2015,08,04,16,47,22.80
2015,08,04,16,48,22.80
2015,08,04,16,49,22.80
2015,08,04,16,50,22.80
2015,08,04,16,51,22.80
2015,08,04,16,52,22.70
2015,08,04,16,53,22.70
2015,08,04,16,54,22.70
2015,08,04,16,55,22.70
2015,08,04,16,56,22.60
2015,08,04,16,57,22.60
2015,08,04,16,58,22.60
2015,08,04,16,59,22.60
2015,08,04,17,00,22.60
2015,08,04,17,01,22.60
2015,08,04,17,02,22.60
2015,08,04,17,03,22.60
2015,08,04,17,04,22.60
2015,08,04,17,05,22.70
2015,08,04,17,06,22.70
2015,08,04,17,07,22.80
2015,08,04,17,08,22.80
2015,08,04,17,09,22.90
2015,08,04,17,10,23.00
2015,08,04,17,11,23.10
2015,08,04,17,12,23.10
2015,08,04,17,13,23.10
2015,08,04,17,14,23.10
2015,08,04,17,15,23.10
2015,08,04,17,16,23.00
2015,08,04,17,17,23.00
2015,08,04,17,18,23.00
2015,08,04,17,19,23.00
2015,08,04,17,20,23.10
2015,08,04,17,21,23.00
2015,08,04,17,22,23.00
2015,08,04,17,23,23.00
2015,08,04,17,24,22.90
2015,08,04,17,25,22.90
2015,08,04,17,26,22.90
2015,08,04,17,27,22.90
2015,08,04,17,28,22.80
2015,08,04,17,29,22.80
2015,08,04,17,30,22.70
2015,08,04,17,31,22.70
2015,08,04,17,32,22.70
2015,08,04,17,33,22.70
2015,08,04,17,34,22.70
2015,08,04,17,35,22.80
2015,08,04,17,36,22.80
2015,08,04,17,37,22.80
2015,08,04,17,38,22.80
2015,08,04,17,39,22.90
2015,08,04,17,40,23.00
2015,08,04,17,41,23.00
2015,08,04,17,42,23.10
2015,08,04,17,43,23.10
2015,08,04,17,44,23.00
2015,08,04,17,45,22.90
2015,08,04,17,46,22.90
2015,08,04,17,47,22.80
2015,08,04,17,48,22.80
2015,08,04,17,49,22.80
2015,08,04,17,50,22.80
2015,08,04,17,51,22.80
2015,08,04,17,52,22.80
2015,08,04,17,53,22.80
2015,08,04,17,54,22.90
2015,08,04,17,55,22.90
2015,08,04,17,56,22.90
2015,08,04,17,57,22.90
2015,08,04,17,58,22.90
2015,08,04,17,59,22.90
2015,08,04,18,00,22.90
2015,08,04,18,01,22.90
2015,08,04,18,02,22.90
2015,08,04,18,03,22.90
2015,08,04,18,04,22.90
2015,08,04,18,05,22.80
2015,08,04,18,06,22.80
2015,08,04,18,07,22.70
2015,08,04,18,08,22.70
2015,08,04,18,09,22.60
2015,08,04,18,10,22.60
2015,08,04,18,11,22.50
2015,08,04,18,12,22.50
2015,08,04,18,13,22.50
2015,08,04,18,14,22.50
2015,08,04,18,15,22.50
2015,08,04,18,16,22.50
2015,08,04,18,17,22.50
2015,08,04,18,18,22.50
2015,08,04,18,19,22.40
2015,08,04,18,20,22.40
2015,08,04,18,21,22.40
2015,08,04,18,22,22.40
2015,08,04,18,23,22.40
2015,08,04,18,24,22.40
2015,08,04,18,25,22.40
2015,08,04,18,26,22.40
2015,08,04,18,27,22.40
2015,08,04,18,28,22.40
2015,08,04,18,29,22.40
2015,08,04,18,30,22.40
2015,08,04,18,31,22.40
2015,08,04,18,32,22.50
2015,08,04,18,33,22.50
2015,08,04,18,34,22.40
2015,08,04,18,35,22.40
2015,08,04,18,36,22.40
2015,08,04,18,37,22.40
2015,08,04,18,38,22.40
2015,08,04,18,39,22.40
2015,08,04,18,40,22.40
2015,08,04,18,41,22.40
2015,08,04,18,42,22.40
2015,08,04,18,43,22.40
2015,08,04,18,44,22.40
2015,08,04,18,45,22.40
2015,08,04,18,46,22.40
2015,08,04,18,47,22.50
2015,08,04,18,48,22.50
2015,08,04,18,49,22.50
2015,08,04,18,50,22.50
2015,08,04,18,51,22.60
2015,08,04,18,52,22.60
2015,08,04,18,53,22.60
2015,08,04,18,54,22.70
2015,08,04,18,55,22.70
2015,08,04,18,56,22.70
2015,08,04,18,57,22.70
2015,08,04,18,58,22.70
2015,08,04,18,59,22.70
2015,08,04,19,00,22.70
2015,08,04,19,01,22.60
2015,08,04,19,02,22.60
2015,08,04,19,03,22.60
2015,08,04,19,04,22.70
2015,08,04,19,05,22.70
2015,08,04,19,06,22.70
2015,08,04,19,07,22.70
2015,08,04,19,08,22.70
2015,08,04,19,09,22.70
2015,08,04,19,10,22.70
2015,08,04,19,11,22.70
2015,08,04,19,12,22.70
2015,08,04,19,13,22.60
2015,08,04,19,14,22.60
2015,08,04,19,15,22.60
2015,08,04,19,16,22.50
2015,08,04,19,17,22.50
2015,08,04,19,18,22.50
2015,08,04,19,19,22.50
2015,08,04,19,20,22.50
2015,08,04,19,21,22.50
2015,08,04,19,22,22.50
2015,08,04,19,23,22.50
2015,08,04,19,24,22.50
2015,08,04,19,25,22.50
2015,08,04,19,26,22.50
2015,08,04,19,27,22.50
2015,08,04,19,28,22.50
2015,08,04,19,29,22.50
2015,08,04,19,30,22.50
2015,08,04,19,31,22.50
2015,08,04,19,32,22.50
2015,08,04,19,33,22.40
2015,08,04,19,34,22.40
2015,08,04,19,35,22.40
2015,08,04,19,36,22.40
2015,08,04,19,37,22.40
2015,08,04,19,38,22.40
2015,08,04,19,39,22.40
2015,08,04,19,40,22.40
2015,08,04,19,41,22.40
2015,08,04,19,42,22.40
2015,08,04,19,43,22.40
2015,08,04,19,44,22.40
2015,08,04,19,45,22.40
2015,08,04,19,46,22.30
2015,08,04,19,47,22.30
2015,08,04,19,48,22.30
2015,08,04,19,49,22.30
2015,08,04,19,50,22.30
2015,08,04,19,51,22.30
2015,08,04,19,52,22.30
2015,08,04,19,53,22.30
2015,08,04,19,54,22.30
2015,08,04,19,55,22.20
2015,08,04,19,56,22.20
2015,08,04,19,57,22.20
2015,08,04,19,58,22.20
2015,08,04,19,59,22.20
2015,08,04,20,00,22.20
2015,08,04,20,01,22.20
2015,08,04,20,02,22.20
2015,08,04,20,03,22.20
2015,08,04,20,04,22.10
2015,08,04,20,05,22.10
2015,08,04,20,06,22.00
2015,08,04,20,07,21.90
2015,08,04,20,08,21.80
2015,08,04,20,09,21.70
2015,08,04,20,10,21.70
2015,08,04,20,11,21.60
2015,08,04,20,12,21.50
2015,08,04,20,13,21.40
2015,08,04,20,14,21.30
2015,08,04,20,15,21.30
2015,08,04,20,16,21.20
2015,08,04,20,17,21.20
2015,08,04,20,18,21.10
2015,08,04,20,19,21.10
2015,08,04,20,20,21.00
2015,08,04,20,21,21.00
2015,08,04,20,22,20.90
2015,08,04,20,23,20.90
2015,08,04,20,24,20.90
2015,08,04,20,25,20.80
2015,08,04,20,26,20.80
2015,08,04,20,27,20.80
2015,08,04,20,28,20.80
2015,08,04,20,29,20.80
2015,08,04,20,30,20.70
2015,08,04,20,31,20.70
2015,08,04,20,32,20.70
2015,08,04,20,33,20.70
2015,08,04,20,34,20.70
2015,08,04,20,35,20.70
2015,08,04,20,36,20.70
2015,08,04,20,37,20.70
2015,08,04,20,38,20.70
2015,08,04,20,39,20.70
2015,08,04,20,40,20.70
2015,08,04,20,41,20.70
2015,08,04,20,42,20.60
2015,08,04,20,43,20.60
2015,08,04,20,44,20.60
2015,08,04,20,45,20.60
2015,08,04,20,46,20.60
2015,08,04,20,47,20.50
2015,08,04,20,48,20.50
2015,08,04,20,49,20.50
2015,08,04,20,50,20.40
2015,08,04,20,51,20.40
2015,08,04,20,52,20.40
2015,08,04,20,53,20.30
2015,08,04,20,54,20.30
2015,08,04,20,55,20.20
2015,08,04,20,56,20.20
2015,08,04,20,57,20.10
2015,08,04,20,58,20.10
2015,08,04,20,59,20.00
2015,08,04,21,00,20.00
2015,08,04,21,01,20.00
2015,08,04,21,02,20.00
2015,08,04,21,03,19.90
2015,08,04,21,04,19.90
2015,08,04,21,05,19.90
2015,08,04,21,06,19.90
2015,08,04,21,07,19.90
2015,08,04,21,08,19.90
2015,08,04,21,09,19.90
2015,08,04,21,10,19.90
2015,08,04,21,11,20.00
2015,08,04,21,12,20.00
2015,08,04,21,13,20.00
2015,08,04,21,14,20.10
2015,08,04,21,15,20.10
2015,08,04,21,16,20.10
2015,08,04,21,17,20.10
2015,08,04,21,18,20.10
2015,08,04,21,19,20.10
2015,08,04,21,20,20.10
2015,08,04,21,21,20.10
2015,08,04,21,22,20.10
2015,08,04,21,23,20.00
2015,08,04,21,24,20.00
2015,08,04,21,25,20.00
2015,08,04,21,26,19.90
2015,08,04,21,27,19.90
2015,08,04,21,28,19.90
2015,08,04,21,29,19.90
2015,08,04,21,30,19.90
2015,08,04,21,31,19.90
2015,08,04,21,32,19.80
2015,08,04,21,33,19.80
2015,08,04,21,34,19.80
2015,08,04,21,35,19.80
2015,08,04,21,36,19.70
2015,08,04,21,37,19.70
2015,08,04,21,38,19.70
2015,08,04,21,39,19.70
2015,08,04,21,40,19.70
2015,08,04,21,41,19.60
2015,08,04,21,42,19.60
2015,08,04,21,43,19.60
2015,08,04,21,44,19.50
2015,08,04,21,45,19.50
2015,08,04,21,46,19.50
2015,08,04,21,47,19.40
2015,08,04,21,48,19.40
2015,08,04,21,49,19.30
2015,08,04,21,50,19.30
2015,08,04,21,51,19.20
2015,08,04,21,52,19.20
2015,08,04,21,53,19.10
2015,08,04,21,54,19.10
2015,08,04,21,55,19.10
2015,08,04,21,56,19.00
2015,08,04,21,57,18.90
2015,08,04,21,58,18.90
2015,08,04,21,59,18.80
2015,08,04,22,00,18.70
2015,08,04,22,01,18.70
2015,08,04,22,02,18.60
2015,08,04,22,03,18.50
2015,08,04,22,04,18.40
2015,08,04,22,05,18.40
2015,08,04,22,06,18.30
2015,08,04,22,07,18.30
2015,08,04,22,08,18.30
2015,08,04,22,09,18.20
2015,08,04,22,10,18.20
2015,08,04,22,11,18.20
2015,08,04,22,12,18.10
2015,08,04,22,13,18.10
2015,08,04,22,14,18.00
2015,08,04,22,15,18.00
2015,08,04,22,16,17.90
2015,08,04,22,17,17.90
2015,08,04,22,18,17.90
2015,08,04,22,19,17.80
2015,08,04,22,20,17.80
2015,08,04,22,21,17.80
2015,08,04,22,22,17.70
2015,08,04,22,23,17.70
2015,08,04,22,24,17.70
2015,08,04,22,25,17.70
2015,08,04,22,26,17.60
2015,08,04,22,27,17.60
2015,08,04,22,28,17.60
2015,08,04,22,29,17.60
2015,08,04,22,30,17.50
2015,08,04,22,31,17.50
2015,08,04,22,32,17.40
2015,08,04,22,33,17.40
2015,08,04,22,34,17.40
2015,08,04,22,35,17.30
2015,08,04,22,36,17.30
2015,08,04,22,37,17.30
2015,08,04,22,38,17.20
2015,08,04,22,39,17.20
2015,08,04,22,40,17.20
2015,08,04,22,41,17.10
2015,08,04,22,42,17.10
2015,08,04,22,43,17.10
2015,08,04,22,44,17.00
2015,08,04,22,45,17.00
2015,08,04,22,46,16.90
2015,08,04,22,47,16.90
2015,08,04,22,48,16.90
2015,08,04,22,49,16.80
2015,08,04,22,50,16.80
2015,08,04,22,51,16.70
2015,08,04,22,52,16.70
2015,08,04,22,53,16.60
2015,08,04,22,54,16.60
2015,08,04,22,55,16.50
2015,08,04,22,56,16.50
2015,08,04,22,57,16.40
2015,08,04,22,58,16.40
2015,08,04,22,59,16.30
2015,08,04,23,00,16.30
2015,08,04,23,01,16.30
2015,08,04,23,02,16.30
2015,08,04,23,03,16.30
2015,08,04,23,04,16.30
2015,08,04,23,05,16.20
2015,08,04,23,06,16.20
2015,08,04,23,07,16.20
2015,08,04,23,08,16.20
2015,08,04,23,09,16.20
2015,08,04,23,10,16.20
2015,08,04,23,11,16.20
2015,08,04,23,12,16.20
2015,08,04,23,13,16.20
2015,08,04,23,14,16.20
2015,08,04,23,15,16.20
2015,08,04,23,16,16.20
2015,08,04,23,17,16.10
2015,08,04,23,18,16.20
2015,08,04,23,19,16.20
2015,08,04,23,20,16.10
2015,08,04,23,21,16.10
2015,08,04,23,22,16.10
2015,08,04,23,23,16.10
2015,08,04,23,24,16.10
2015,08,04,23,25,16.10
2015,08,04,23,26,16.10
2015,08,04,23,27,16.10
2015,08,04,23,28,16.00
2015,08,04,23,29,16.00
2015,08,04,23,30,16.00
2015,08,04,23,31,15.90
2015,08,04,23,32,15.90
2015,08,04,23,33,15.90
2015,08,04,23,34,15.90
2015,08,04,23,35,15.90
2015,08,04,23,36,15.80
2015,08,04,23,37,15.80
2015,08,04,23,38,15.80
2015,08,04,23,39,15.80
2015,08,04,23,40,15.90
2015,08,04,23,41,15.90
2015,08,04,23,42,15.90
2015,08,04,23,43,15.90
2015,08,04,23,44,15.80
2015,08,04,23,45,15.80
2015,08,04,23,46,15.80
2015,08,04,23,47,15.80
2015,08,04,23,48,15.80
2015,08,04,23,49,15.70
2015,08,04,23,50,15.70
2015,08,04,23,51,15.70
2015,08,04,23,52,15.60
2015,08,04,23,53,15.60
2015,08,04,23,54,15.60
2015,08,04,23,55,15.60
2015,08,04,23,56,15.50
2015,08,04,23,57,15.50
2015,08,04,23,58,15.40
2015,08,04,23,59,15.40
